[[[{"header":{"parameterUnit":"kt","parameterCategory":2,"dx":1,"dy":1,"la1":30.253999710083008,"la2":30.299108505249023,"lo1":-89.0895004272461,"lo2":-89.04439544677734,"nx":28,"ny":28,"refTime":"2022-10-13T21:00:00:Z","depth":0,"parameterNumber":1,"parameterNumberName":"U-component_of_WINDS"},"data":[-3.9698,-3.983,-3.9814,-3.9958,-3.9967,-4.0064,-4.0093,-4.0128,-4.0153,-4.0266,-4.0328,-4.0325,-4.0342,-4.0413,-4.048,-4.0477,-4.0507,-4.0568,-4.0554,-4.0299,-4.0262,-4.0227,-4.0195,-4.0574,-4.0575,-4.0822,-4.0824,-4.0826,-3.9516,-3.9527,-3.9597,-3.9654,-3.9715,-3.9648,-3.9687,-3.9743,-3.9831,-3.9861,-3.992,-4.0018,-4.0094,-4.009,-4.016,-4.0223,-4.0195,-4.0243,-4.0239,-4.0243,-3.9969,-3.9935,-4.0264,-4.0264,-4.0264,-4.0264,-4.0264,-4.0264,-3.9181,-3.9261,-3.9285,-3.9361,-3.9384,-3.9423,-3.9496,-3.9489,-3.9558,-3.9627,-3.9592,-3.9691,-3.9718,-3.9792,-3.9812,-3.989,-3.9833,-3.988,-3.9893,-3.9906,-3.9924,-3.9574,-3.99,-3.9899,-3.9898,-3.9897,-3.9896,0,-3.8931,-3.8911,-3.8976,-3.9038,-3.9092,-3.9137,-3.9176,-3.922,-3.917,-3.9229,-3.9313,-3.9359,-3.9449,-3.9526,-3.9586,-3.9597,-3.9533,-3.9523,-3.9556,-3.9577,-3.9588,-3.9586,-3.9142,-3.9514,-3.9511,-3.9508,-3.9507,-3.9505,-3.8594,-3.8688,-3.8702,-3.8751,-3.8767,-3.8846,-3.8889,-3.8837,-3.8886,-3.8925,-3.8999,-3.9074,-3.9132,-3.927,-3.926,-3.9327,-3.9297,-3.9442,-3.9307,-3.9322,-3.9303,-3.9299,-3.9309,-3.947,-3.9474,-3.9478,-3.9481,0,-3.8406,-3.8375,-3.8514,-3.8518,-3.8522,-3.8624,-3.8628,-3.8705,-3.8688,-3.8792,-3.8813,-3.8788,-3.8871,-3.8836,-3.8924,-3.8904,-3.9075,-3.9042,-3.9066,-3.9058,-3.9186,-3.9176,-3.9602,-3.9656,-3.926,-3.9263,-3.9267,0,-3.8107,-3.8232,-3.8178,-3.826,-3.8398,-3.8341,-3.8479,-3.8477,-3.8497,-3.8578,-3.8498,-3.8576,-3.8519,-3.8593,-3.8563,-3.8695,-3.8711,-3.8704,-3.8695,-3.8713,-3.8714,-3.874,-3.8722,-3.8667,-3.8665,-3.8663,-3.8662,0,-3.7819,-3.7934,-3.8067,-3.8088,-3.8104,-3.8168,-3.8178,-3.8198,-3.8241,-3.829,-3.8318,-3.8379,-3.8414,-3.8464,-3.8425,-3.8335,-3.8585,-3.8453,-3.8578,-3.858,-3.8637,-3.8634,-3.9018,-3.8659,-3.8658,-3.8657,-3.8657,0,-3.7572,-3.7622,-3.7818,-3.7829,-3.7862,-3.7949,-3.8005,-3.8071,-3.8099,-3.8085,-3.8123,-3.8065,-3.8175,-3.8048,-3.82,-3.8095,-3.8134,-3.8136,-3.8145,-3.8154,-3.8013,-3.8238,-3.8604,-3.8643,-3.8162,-3.8157,-3.8154,0,-3.7252,-3.744,-3.7392,-3.7579,-3.7661,-3.7565,-3.7661,-3.7686,-3.7675,-3.7744,-3.7731,-3.781,-3.7707,-3.7727,-3.7806,-3.7797,-3.7935,-3.7777,-3.7881,-3.7886,-3.788,-3.8216,-3.8281,-3.8527,-3.81,-3.8106,-3.811,0,-3.7,-3.7015,-3.7052,-3.7074,-3.7096,-3.7164,-3.7273,-3.7338,-3.7386,-3.7422,-3.7515,-3.7622,-3.755,-3.7583,-3.7541,-3.7627,-3.784,-3.7537,-3.7537,-3.7596,-3.8069,-3.813,-3.8172,-3.7794,-3.78,-3.7805,-3.8067,0,-3.664,-3.6727,-3.6824,-3.6873,-3.6918,-3.7032,-3.6992,-3.7046,-3.7001,-3.6986,-3.7118,-3.7129,-3.7195,-3.7231,-3.7187,-3.7392,-3.7352,-3.7274,-3.7148,-3.7368,-3.7454,-3.7488,-3.7024,-3.702,-3.7017,-3.7014,0,0,-3.6343,-3.6467,-3.6408,-3.6511,-3.6546,-3.6443,-3.6568,-3.659,-3.6638,-3.6665,-3.6594,-3.6749,-3.676,-3.6926,-3.6991,-3.7017,-3.7051,-3.6975,-3.7263,-3.7291,-3.7317,-3.7409,-3.7446,-3.7008,-3.7007,-3.7006,-3.7005,0,-3.6202,-3.6213,-3.6337,-3.6357,-3.6383,-3.636,-3.639,-3.6398,-3.6394,-3.6522,-3.6436,-3.651,-3.6634,-3.6659,-3.6688,-3.6953,-3.6885,-3.6976,-3.7134,-3.7231,-3.7263,-3.7292,-3.7389,-3.7425,-3.6996,-3.6997,-3.6997,0,-3.5948,-3.5953,-3.6008,-3.608,-3.6096,-3.6182,-3.604,-3.6135,-3.6199,-3.608,-3.6209,-3.621,-3.6238,-3.6398,-3.6469,-3.6406,-3.6737,-3.6624,-3.6644,-3.6651,-3.6743,-3.6782,-3.6817,-3.6361,-3.6359,-3.6357,0,0,-3.5833,-3.5913,-3.5901,-3.6046,-3.6063,-3.6029,-3.607,-3.6028,-3.6055,-3.6066,-3.6064,-3.6094,-3.6165,-3.6214,-3.6278,-3.6459,-3.6462,-3.6547,-3.6577,-3.6602,-3.6623,-3.6722,-3.676,-3.6349,-3.6349,-3.6349,0,0,-3.5778,-3.5769,-3.5718,-3.5881,-3.5909,-3.5907,-3.5999,-3.5936,-3.599,-3.5972,-3.5907,-3.5912,-3.6061,-3.6065,-3.5966,-3.6233,-3.6109,-3.6132,-3.6225,-3.6263,-3.6292,-3.6289,-3.5822,0,0,0,0,0,-3.5613,-3.577,-3.5724,-3.5745,-3.5835,-3.5933,-3.5944,-3.5893,-3.5807,-3.5881,-3.587,-3.5792,-3.5998,-3.5909,-3.5932,-3.6043,-3.625,-3.6267,-3.6284,-3.6447,-3.6486,-3.652,0,0,0,0,0,0,-3.562,-3.5646,-3.5719,-3.5725,-3.5744,-3.5927,-3.577,-3.576,-3.5798,-3.5781,-3.5797,-3.5793,-3.5752,-3.5894,-3.5915,-3.6022,-3.5815,-3.6257,-3.6272,-3.6285,-3.646,-3.6493,-3.652,0,0,0,0,0,-3.5626,-3.5647,-3.5804,-3.5722,-3.5739,-3.571,-3.5763,-3.5754,-3.5783,-3.5765,-3.5758,-3.5741,-3.5757,-3.5771,-3.5907,-3.6014,-3.58,-3.5808,-3.6266,-3.6278,-3.6289,-3.6476,0,0,0,0,0,0,-3.5631,-3.564,-3.5807,-3.581,-3.5658,-3.5698,-3.5703,-3.5749,-3.5763,-3.5758,-3.5705,-3.5692,-3.5762,-3.5772,-3.5783,-3.6014,-3.5788,-3.5796,-3.5801,-3.6275,-3.6285,-3.6293,0,0,0,0,0,0,-3.5628,-3.5644,-3.5808,-3.5731,-3.5724,-3.5688,-3.5692,-3.58,-3.5764,-3.5701,-3.5691,-3.5699,-3.5745,-3.5773,-3.5782,-3.5951,-3.5778,-3.5786,-3.5792,-3.5795,-3.6283,-3.629,0,0,0,0,0,0,-3.5634,-3.5647,-3.5729,-3.5725,-3.5719,-3.5753,-3.5782,-3.5877,-3.5697,-3.5703,-3.5679,-3.5671,-3.5749,-3.5756,-3.5781,-3.5948,-3.595,-3.5779,-3.5784,-3.5788,-3.579,0,0,0,0,0,0,0,-3.5638,-3.5563,-3.5787,-3.572,-3.5715,-3.5841,-3.5842,-3.5843,-3.5695,-3.5688,-3.5681,-3.5674,-3.5733,-3.5742,-3.5751,-3.5945,0,0,-3.5778,-3.5782,0,0,0,0,0,0,0,0,-3.5556,-3.5561,-3.5787,-3.5787,-3.5788,-3.5841,-3.5842,-3.5843,-3.5694,-3.5688,-3.5682,-3.5677,-3.5736,-3.5743,-3.575,0,0,0,0,0,0,0,0,0,0,0,0,0,0,0,-3.5787,-3.5787,0,-3.5842,-3.5842,-3.5843,-3.5693,-3.5688,-3.5684,-3.5679,-3.5738,-3.5743,-3.5749,0,0,0,0,0,0,0,0,0,0,0,0,0,0,0,0,0,0,0,0,0,0,0,0,0,0,0,0,0,0,0,0,0,0,0,0,0,0,0,0,0,0,0,0,0,0,0,0,0,0,0,0,0,0,0,0,0,0,0,0,0,0,0,0,0,0,0,0,0]}],[{"header":{"parameterUnit":"kt","parameterCategory":2,"dx":1,"dy":1,"la1":30.253999710083008,"la2":30.299108505249023,"lo1":-89.0895004272461,"lo2":-89.04439544677734,"nx":28,"ny":28,"refTime":"2022-10-13T21:00:00:Z","depth":0,"parameterNumber":2,"parameterNumberName":"V-component_of_WINDS"},"data":[-1.8313,-1.8348,-1.8397,-1.8459,-1.8513,-1.8564,-1.8598,-1.8647,-1.8698,-1.8764,-1.8811,-1.8864,-1.8934,-1.9001,-1.9054,-1.9077,-1.9095,-1.9072,-1.9102,-1.9163,-1.9175,-1.9186,-1.9181,-1.9075,-1.9075,-1.9031,-1.903,-1.903,-1.8351,-1.8405,-1.8453,-1.8532,-1.8573,-1.8625,-1.8692,-1.8723,-1.8767,-1.8831,-1.888,-1.8942,-1.8998,-1.9079,-1.914,-1.9158,-1.9185,-1.9171,-1.917,-1.918,-1.9247,-1.9241,-1.9147,-1.9147,-1.9147,-1.9147,-1.9147,-1.9147,-1.8434,-1.8453,-1.853,-1.8583,-1.8636,-1.8689,-1.8716,-1.8781,-1.8828,-1.8899,-1.8949,-1.9,-1.9074,-1.9173,-1.9219,-1.926,-1.9285,-1.9284,-1.9284,-1.9282,-1.9273,-1.9328,-1.9273,-1.9273,-1.9274,-1.9274,-1.9275,0,-1.8509,-1.8549,-1.8599,-1.8662,-1.8704,-1.8758,-1.8817,-1.8835,-1.8937,-1.8972,-1.9027,-1.9067,-1.9145,-1.9202,-1.9272,-1.9321,-1.9378,-1.939,-1.9389,-1.9365,-1.9333,-1.9349,-1.9456,-1.9391,-1.9392,-1.9393,-1.9394,-1.9394,-1.8595,-1.8612,-1.8718,-1.8746,-1.8791,-1.8835,-1.8872,-1.8961,-1.8996,-1.9081,-1.9094,-1.9153,-1.9204,-1.9284,-1.936,-1.9419,-1.9447,-1.9417,-1.9457,-1.9432,-1.9446,-1.9443,-1.9445,-1.9407,-1.9405,-1.9404,-1.9403,0,-1.8638,-1.872,-1.8763,-1.8867,-1.8893,-1.8907,-1.8995,-1.9019,-1.9081,-1.9121,-1.9136,-1.9232,-1.9285,-1.9367,-1.9444,-1.9485,-1.9508,-1.9535,-1.9482,-1.9492,-1.9472,-1.9472,-1.9396,-1.939,-1.9502,-1.9501,-1.95,0,-1.8743,-1.8763,-1.8883,-1.8905,-1.893,-1.902,-1.9042,-1.9098,-1.9164,-1.9197,-1.9277,-1.9306,-1.9407,-1.9448,-1.951,-1.9543,-1.9558,-1.9591,-1.9607,-1.9583,-1.9579,-1.9602,-1.9606,-1.9644,-1.9644,-1.9644,-1.9644,0,-1.8801,-1.889,-1.8926,-1.8959,-1.9072,-1.9086,-1.9134,-1.9209,-1.9245,-1.9304,-1.9328,-1.939,-1.9424,-1.9471,-1.9549,-1.9572,-1.9592,-1.9641,-1.9626,-1.9624,-1.9625,-1.9624,-1.9537,-1.9645,-1.9645,-1.9645,-1.9645,0,-1.8898,-1.8957,-1.8996,-1.9092,-1.9112,-1.9136,-1.9204,-1.9243,-1.9317,-1.9358,-1.9405,-1.9468,-1.9505,-1.9547,-1.96,-1.9608,-1.9637,-1.9673,-1.9673,-1.9681,-1.9725,-1.9663,-1.9573,-1.9566,-1.9688,-1.9688,-1.9689,0,-1.8941,-1.9004,-1.9082,-1.9118,-1.9158,-1.9245,-1.9273,-1.9337,-1.9393,-1.9435,-1.9498,-1.9546,-1.9595,-1.9621,-1.9636,-1.9703,-1.9691,-1.9707,-1.9764,-1.9765,-1.9741,-1.9659,-1.9625,-1.9584,-1.9695,-1.9694,-1.9693,0,-1.8986,-1.9124,-1.9125,-1.9167,-1.9267,-1.9302,-1.9333,-1.9401,-1.9425,-1.9488,-1.9517,-1.9586,-1.9626,-1.9669,-1.9727,-1.9738,-1.9702,-1.978,-1.9783,-1.9761,-1.9705,-1.9672,-1.9665,-1.9738,-1.9738,-1.9737,-1.9698,0,-1.9111,-1.9154,-1.9161,-1.9252,-1.9293,-1.932,-1.941,-1.944,-1.9493,-1.9552,-1.9597,-1.9672,-1.974,-1.9755,-1.9806,-1.9806,-1.9819,-1.9861,-1.9908,-1.9854,-1.9843,-1.9839,-1.9916,-1.9918,-1.992,-1.9921,0,0,-1.9132,-1.9196,-1.9282,-1.9317,-1.9356,-1.9447,-1.9469,-1.9517,-1.9614,-1.9638,-1.9665,-1.9774,-1.9833,-1.9877,-1.9868,-1.9896,-1.9904,-1.9919,-1.9879,-1.9874,-1.987,-1.9856,-1.9851,-1.9924,-1.9924,-1.9925,-1.9926,0,-1.9196,-1.9257,-1.9278,-1.9333,-1.9417,-1.948,-1.9484,-1.9584,-1.9623,-1.9668,-1.9742,-1.978,-1.9865,-1.9918,-1.9955,-1.9917,-1.997,-1.9931,-1.9879,-1.9892,-1.9885,-1.9879,-1.9864,-1.9858,-1.9929,-1.9929,-1.9929,0,-1.9255,-1.9329,-1.9349,-1.9444,-1.95,-1.954,-1.9611,-1.9651,-1.9681,-1.9779,-1.9822,-1.9876,-1.9955,-1.9986,-2.0003,-2.0028,-2.0025,-2.0042,-2.0035,-2.0038,-2.0055,-2.0046,-2.0038,-2.0141,-2.0141,-2.0141,0,0,-1.9298,-1.934,-1.9447,-1.9465,-1.9495,-1.9589,-1.962,-1.9676,-1.9746,-1.9773,-1.9843,-1.9908,-1.9959,-1.999,-2.0042,-2.0063,-2.0086,-2.0065,-2.0055,-2.0046,-2.0045,-2.0059,-2.005,-2.0143,-2.0143,-2.0143,0,0,-1.932,-1.9445,-1.9486,-1.9518,-1.9582,-1.9689,-1.9696,-1.9749,-1.9805,-1.9812,-1.9908,-1.9929,-1.996,-2.001,-2.0018,-2.006,-2.0104,-2.0104,-2.0026,-2.0015,-2.0005,-1.9992,-2.0101,0,0,0,0,0,-1.9432,-1.943,-1.9466,-1.9485,-1.9606,-1.9669,-1.9685,-1.9765,-1.9794,-1.9798,-1.9865,-1.9921,-2.0034,-2.0043,-2.006,-2.005,-2.0161,-2.0158,-2.0155,-2.0059,-2.0047,-2.0036,0,0,0,0,0,0,-1.9441,-1.9463,-1.9466,-1.9571,-1.96,-1.967,-1.9737,-1.9759,-1.9796,-1.9806,-1.9906,-1.9924,-1.9993,-2.004,-2.0054,-2.0043,-2.0096,-2.0159,-2.0157,-2.0154,-2.0055,-2.0044,-2.0035,0,0,0,0,0,-1.9447,-1.9466,-1.9639,-1.9572,-1.9597,-1.9702,-1.9738,-1.9757,-1.9787,-1.9891,-1.9911,-1.9843,-1.999,-2.0007,-2.0049,-2.0034,-2.0087,-2.0092,-2.0158,-2.0156,-2.0154,-2.005,0,0,0,0,0,0,-1.9452,-1.9483,-1.9646,-1.9656,-1.958,-1.97,-1.9721,-1.9754,-1.9871,-1.9891,-1.9833,-1.984,-1.9988,-2.0002,-2.0015,-2.0027,-2.008,-2.0085,-2.0088,-2.0156,-2.0154,-2.0153,0,0,0,0,0,0,-1.9474,-1.9491,-1.9651,-1.9656,-1.9668,-1.9697,-1.9716,-1.9763,-1.9871,-1.9807,-1.9816,-1.9835,-1.9969,-1.9998,-2.0009,-2.0079,-2.0074,-2.0079,-2.0082,-2.0084,-2.0155,-2.0153,0,0,0,0,0,0,-1.9483,-1.9498,-1.9654,-1.9663,-1.9673,-1.9795,-1.974,-1.9859,-1.9876,-1.98,-1.9879,-1.9881,-1.9963,-1.9976,-2.0004,-2.0069,-2.0076,-2.0074,-2.0077,-2.008,-2.0081,0,0,0,0,0,0,0,-1.949,-1.937,-1.9584,-1.9668,-1.9677,-1.9752,-1.9755,-1.9757,-1.9876,-1.9878,-1.9879,-1.988,-2.0047,-2.0052,-2.0057,-2.0061,0,0,-2.0074,-2.0076,0,0,0,0,0,0,0,0,-1.9366,-1.9369,-1.9585,-1.9587,-1.9589,-1.9752,-1.9755,-1.9757,-1.9876,-1.9877,-1.9879,-1.988,-2.0048,-2.0052,-2.0057,0,0,0,0,0,0,0,0,0,0,0,0,0,0,0,-1.9585,-1.9587,0,-1.9753,-1.9754,-1.9756,-1.9876,-1.9877,-1.9878,-1.9879,-2.0049,-2.0053,-2.0056,0,0,0,0,0,0,0,0,0,0,0,0,0,0,0,0,0,0,0,0,0,0,0,0,0,0,0,0,0,0,0,0,0,0,0,0,0,0,0,0,0,0,0,0,0,0,0,0,0,0,0,0,0,0,0,0,0,0,0,0,0,0,0,0,0,0,0,0,0]}]]]